TimePDT,TemperatureF,Dew PointF,Humidity,Sea Level PressureIn,VisibilityMPH,Wind Direction,Wind SpeedMPH,Gust SpeedMPH,PrecipitationIn,Events,Conditions,WindDirDegrees,DateUTC
12:15 AM,51.8,30.2,44,30.07,10.0,West,39.1,46.0,N/A,,Clear,280,2012-10-25 07:15:00
12:35 AM,51.8,30.2,44,30.07,10.0,West,36.8,44.9,N/A,,Clear,280,2012-10-25 07:35:00
12:55 AM,50.0,32.0,50,30.07,10.0,West,40.3,44.9,N/A,,Clear,280,2012-10-25 07:55:00
1:15 AM,50.0,32.0,50,30.07,10.0,West,39.1,42.6,N/A,,Clear,280,2012-10-25 08:15:00
1:35 AM,50.0,32.0,50,30.07,10.0,WNW,39.1,44.9,N/A,,Clear,300,2012-10-25 08:35:00
1:55 AM,50.0,32.0,50,30.07,10.0,WNW,40.3,46.0,N/A,,Clear,300,2012-10-25 08:55:00
2:15 AM,50.0,32.0,50,30.07,10.0,WNW,38.0,47.2,N/A,,Clear,300,2012-10-25 09:15:00
2:35 AM,50.0,32.0,50,30.07,10.0,WNW,38.0,46.0,N/A,,Clear,300,2012-10-25 09:35:00
2:55 AM,50.0,32.0,50,30.08,10.0,WNW,33.4,44.9,N/A,,Clear,300,2012-10-25 09:55:00
3:15 AM,50.0,32.0,50,30.08,10.0,WNW,36.8,43.7,N/A,,Clear,300,2012-10-25 10:15:00
3:35 AM,50.0,32.0,50,30.08,10.0,WNW,34.5,40.3,N/A,,Clear,300,2012-10-25 10:35:00
3:55 AM,50.0,32.0,50,30.07,10.0,WNW,34.5,41.4,N/A,,Clear,300,2012-10-25 10:55:00
4:15 AM,50.0,30.2,47,30.06,10.0,WNW,33.4,41.4,N/A,,Clear,300,2012-10-25 11:15:00
4:35 AM,50.0,30.2,47,30.07,10.0,WNW,34.5,41.4,N/A,,Clear,300,2012-10-25 11:35:00
4:55 AM,50.0,28.4,43,30.09,10.0,WNW,28.8,36.8,N/A,,Clear,300,2012-10-25 11:55:00
5:15 AM,50.0,28.4,43,30.11,10.0,NW,20.7,29.9,N/A,,Clear,320,2012-10-25 12:15:00
5:35 AM,50.0,28.4,43,30.12,10.0,North,9.2,20.7,N/A,,Clear,10,2012-10-25 12:35:00
6:15 AM,51.8,24.8,35,30.13,10.0,NE,10.4,28.8,N/A,,Clear,40,2012-10-25 13:15:00
6:35 AM,51.8,24.8,35,30.14,10.0,NNE,5.8,25.3,N/A,,Clear,20,2012-10-25 13:35:00
6:40 AM,51.8,26.6,38,30.14,10.0,NNW,9.2,17.3,N/A,,Clear,330,2012-10-25 13:40:00
7:15 AM,50.0,24.8,37,30.14,10.0,Calm,Calm,-,N/A,,Clear,0,2012-10-25 14:15:00
7:35 AM,48.2,24.8,40,30.15,10.0,Calm,Calm,-,N/A,,Clear,0,2012-10-25 14:35:00
7:55 AM,51.8,24.8,35,30.15,10.0,Calm,Calm,-,N/A,,Clear,0,2012-10-25 14:55:00
8:15 AM,53.6,24.8,33,30.16,10.0,Calm,Calm,-,N/A,,Clear,0,2012-10-25 15:15:00
8:35 AM,53.6,24.8,33,30.16,10.0,Calm,Calm,-,N/A,,Clear,0,2012-10-25 15:35:00
8:55 AM,53.6,26.6,35,30.17,10.0,SE,4.6,-,N/A,,Clear,140,2012-10-25 15:55:00
9:15 AM,53.6,26.6,35,30.17,10.0,Calm,Calm,-,N/A,,Clear,0,2012-10-25 16:15:00
9:35 AM,57.2,28.4,33,30.16,10.0,SSW,6.9,-,N/A,,Clear,210,2012-10-25 16:35:00
10:15 AM,57.2,26.6,31,30.17,10.0,Calm,Calm,-,N/A,,Clear,0,2012-10-25 17:15:00
10:35 AM,59.0,26.6,29,30.16,10.0,Calm,Calm,-,N/A,,Clear,0,2012-10-25 17:35:00
10:55 AM,59.0,26.6,29,30.16,10.0,Calm,Calm,-,N/A,,Clear,0,2012-10-25 17:55:00
11:15 AM,60.8,26.6,27,30.16,10.0,ENE,6.9,-,N/A,,Clear,70,2012-10-25 18:15:00
11:35 AM,62.6,28.4,27,30.16,10.0,Calm,Calm,-,N/A,,Clear,0,2012-10-25 18:35:00
11:55 AM,64.4,28.4,26,30.16,10.0,SSE,3.5,-,N/A,,Clear,160,2012-10-25 18:55:00
12:15 PM,62.6,28.4,27,30.15,10.0,Calm,Calm,-,N/A,,Clear,0,2012-10-25 19:15:00
12:35 PM,64.4,28.4,26,30.14,10.0,East,6.9,-,N/A,,Clear,90,2012-10-25 19:35:00
12:55 PM,64.4,28.4,26,30.13,10.0,Calm,Calm,-,N/A,,Clear,0,2012-10-25 19:55:00
1:15 PM,64.4,28.4,26,30.12,10.0,Calm,Calm,-,N/A,,Clear,0,2012-10-25 20:15:00
1:35 PM,66.2,28.4,24,30.11,10.0,Calm,Calm,-,N/A,,Clear,0,2012-10-25 20:35:00
1:55 PM,66.2,30.2,26,30.10,10.0,Calm,Calm,-,N/A,,Clear,0,2012-10-25 20:55:00
2:15 PM,68.0,32.0,26,30.09,10.0,Calm,Calm,-,N/A,,Clear,0,2012-10-25 21:15:00
2:30 PM,68.0,32.0,26,30.08,10.0,Calm,Calm,-,N/A,,Clear,0,2012-10-25 21:30:00
2:55 PM,68.0,35.6,30,30.08,10.0,WSW,11.5,-,N/A,,Clear,240,2012-10-25 21:55:00
3:15 PM,68.0,35.6,30,30.08,10.0,WNW,13.8,23.0,N/A,,Clear,290,2012-10-25 22:15:00
3:35 PM,68.0,35.6,30,30.08,10.0,WNW,16.1,-,N/A,,Clear,290,2012-10-25 22:35:00
4:20 PM,66.2,35.6,32,30.08,10.0,WNW,15.0,-,N/A,,Clear,300,2012-10-25 23:20:00
6:15 PM,59.0,35.6,42,30.10,10.0,WNW,12.7,-,N/A,,Clear,300,2012-10-26 01:15:00
6:30 PM,59.0,35.6,42,30.10,10.0,WNW,13.8,-,N/A,,Clear,300,2012-10-26 01:30:00
6:55 PM,59.0,35.6,42,30.11,10.0,WNW,12.7,-,N/A,,Clear,300,2012-10-26 01:55:00
7:15 PM,59.0,35.6,42,30.12,10.0,WNW,13.8,-,N/A,,Clear,290,2012-10-26 02:15:00
7:35 PM,57.2,35.6,44,30.12,10.0,WNW,6.9,-,N/A,,Clear,300,2012-10-26 02:35:00
7:55 PM,57.2,32.0,38,30.13,10.0,NW,8.1,-,N/A,,Clear,320,2012-10-26 02:55:00
8:15 PM,57.2,32.0,38,30.14,10.0,Calm,Calm,-,N/A,,Clear,0,2012-10-26 03:15:00
8:35 PM,57.2,30.2,36,30.14,10.0,Calm,Calm,-,N/A,,Clear,0,2012-10-26 03:35:00
9:15 PM,55.4,28.4,36,30.15,10.0,NW,4.6,-,N/A,,Clear,320,2012-10-26 04:15:00
9:35 PM,55.4,32.0,41,30.16,10.0,NW,8.1,-,N/A,,Clear,320,2012-10-26 04:35:00
9:55 PM,53.6,32.0,44,30.16,10.0,NW,8.1,-,N/A,,Clear,320,2012-10-26 04:55:00
10:15 PM,53.6,30.2,41,30.17,10.0,Calm,Calm,-,N/A,,Clear,0,2012-10-26 05:15:00
10:55 PM,53.6,28.4,38,30.18,10.0,NNW,8.1,-,N/A,,Clear,340,2012-10-26 05:55:00
11:15 PM,53.6,26.6,35,30.18,10.0,NNW,8.1,-,N/A,,Clear,330,2012-10-26 06:15:00
11:35 PM,51.8,26.6,38,30.18,10.0,Calm,Calm,-,N/A,,Clear,0,2012-10-26 06:35:00
11:55 PM,51.8,26.6,38,30.18,10.0,Calm,Calm,-,N/A,,Clear,0,2012-10-26 06:55:00